Weather History for KMTV - January, 2014

Change the Weather History Date:

Wednesday, January 29, 2014

  Actual Average (KGSO) Record (KGSO)
Temperature  
Mean Temperature 16 °F 40 °F  
Max Temperature 29 °F 49 °F 78 °F (1975)
Min Temperature 3 °F 30 °F -7 °F (1940)
Degree Days  
Heating Degree Days 48 25  
Month to date heating degree days 752  
Since 1 July heating degree days 2166  
Cooling Degree Days 0 0  
Month to date cooling degree days 0  
Year to date cooling degree days 0  
Moisture  
Dew Point 1 °F    
Average Humidity 54    
Maximum Humidity 90    
Minimum Humidity 21    
Precipitation  
Precipitation 0.01 in 0.09 in 1.00 in (1910)
Month to date precipitation 2.86  
Year to date precipitation 2.86  
Snow  
Snow 0.00 in 0.10 in 7.20 in (1966)
Month to date snowfall 3.2  
Since 1 July snowfall 4.1  
Snow Depth -    
Sea Level Pressure  
Sea Level Pressure 30.28 in    
Wind  
Wind Speed 3 mph (NNW)    
Max Wind Speed 12 mph    
Max Gust Speed 17 mph    
Visibility 10 miles    
Events Snow    
T = Trace of Precipitation, MM = Missing Value Source: NWS Daily Summary

Daily Weather History Graph

Daily Weather History Graph

Search for Another Location

Airport or City:

Trip Planner

Search our weather history database for the weather conditions in past years. The results will help you decide how hot, cold, wet, or windy it might be!

Date:

Astronomy

Jan. 29, 2014 Rise Set
Actual Time 7:24 AM EST 5:42 PM EST
Civil Twilight 6:56 AM EST 6:10 PM EST
Nautical Twilight 6:25 AM EST 6:41 PM EST
Astronomical Twilight 5:55 AM EST 7:11 PM EST
Moon 5:59 AM EST (1/29) 4:40 PM EST (1/29)
Length of Visible Light 11h 13m
Length of Day
10h 18m
Waning Crescent, 2% of the Moon is Illuminated
Jan 29
Waning Crescent
Jan 30
New
Feb 6
First Quarter
Feb 14
Full
Feb 22
Last Quarter

Hourly Weather History & Observations

Time (EST) Temp. Windchill Dew Point Humidity Pressure Visibility Wind Dir Wind Speed Gust Speed Precip Events Conditions
12:15 AM 17.6 °F - 14.4 °F 87% 30.20 in 7.0 mi Calm Calm - N/A Snow Light Snow
12:35 AM 17.6 °F - 14.0 °F 86% 30.20 in 10.0 mi Calm Calm - N/A   Overcast
12:55 AM 17.6 °F - 13.8 °F 85% 30.20 in 10.0 mi Calm Calm - 0.01 in   Overcast
1:15 AM 17.2 °F 11.9 °F 13.5 °F 85% 30.20 in 10.0 mi North 3.5 mph - N/A   Overcast
1:35 AM 16.7 °F - 13.3 °F 86% 30.20 in 10.0 mi Calm Calm - N/A   Mostly Cloudy
1:55 AM 16.0 °F - 12.9 °F 88% 30.19 in 10.0 mi Calm Calm - N/A   Overcast
2:15 AM 16.5 °F - 13.1 °F 86% 30.18 in 10.0 mi Calm Calm - N/A   Overcast
2:35 AM 16.3 °F 10.8 °F 12.9 °F 86% 30.18 in 10.0 mi North 3.5 mph - N/A   Mostly Cloudy
2:55 AM 16.3 °F 10.8 °F 12.6 °F 85% 30.18 in 10.0 mi NNW 3.5 mph - N/A   Scattered Clouds
3:15 AM 16.0 °F - 12.4 °F 86% 30.19 in 10.0 mi Calm Calm - N/A   Clear
3:35 AM 15.3 °F - 12.6 °F 89% 30.19 in 10.0 mi Calm Calm - N/A   Clear
3:55 AM 14.7 °F - 11.8 °F 88% 30.19 in 10.0 mi Calm Calm - N/A   Clear
4:15 AM 14.0 °F - 11.7 °F 90% 30.20 in 10.0 mi Calm Calm - N/A   Clear
4:35 AM 15.3 °F 9.6 °F 11.5 °F 85% 30.20 in 10.0 mi North 3.5 mph - N/A   Clear
4:55 AM 15.8 °F 10.2 °F 9.7 °F 77% 30.22 in 10.0 mi North 3.5 mph - N/A   Clear
5:15 AM 15.8 °F 8.6 °F 8.6 °F 73% 30.22 in 10.0 mi North 4.6 mph - N/A   Clear
5:35 AM 15.8 °F 7.2 °F 8.1 °F 72% 30.22 in 10.0 mi North 5.8 mph - N/A   Clear
5:55 AM 15.6 °F 7.0 °F 7.5 °F 70% 30.23 in 10.0 mi NNW 5.8 mph - N/A   Clear
6:15 AM 14.9 °F 7.5 °F 6.1 °F 68% 30.23 in 10.0 mi North 4.6 mph - N/A   Clear
6:35 AM 13.8 °F 6.2 °F 4.3 °F 66% 30.23 in 10.0 mi NNW 4.6 mph - N/A   Clear
6:55 AM 13.8 °F 8.0 °F 1.6 °F 58% 30.25 in 10.0 mi North 3.5 mph - N/A   Clear
7:15 AM 12.9 °F 5.2 °F -0.2 °F 56% 30.25 in 10.0 mi NNW 4.6 mph - N/A   Clear
7:35 AM 12.9 °F 0.7 °F -2.6 °F 50% 30.27 in 10.0 mi North 9.2 mph - N/A   Clear
7:55 AM 12.7 °F 2.4 °F -5.4 °F 44% 30.28 in 10.0 mi North 6.9 mph - N/A   Clear
8:15 AM 12.9 °F -0.9 °F -7.4 °F 40% 30.28 in 10.0 mi North 11.5 mph 16.1 mph N/A   Clear
8:35 AM 13.6 °F 0.7 °F -6.9 °F 40% 30.28 in 10.0 mi North 10.4 mph - N/A   Clear
8:55 AM 13.1 °F 2.8 °F -7.6 °F 39% 30.30 in 10.0 mi NNW 6.9 mph - N/A   Clear
9:15 AM 14.7 °F 2.9 °F -8.1 °F 36% 30.30 in 10.0 mi NNW 9.2 mph - N/A   Clear
9:35 AM 14.9 °F 1.6 °F -7.8 °F 36% 30.32 in 10.0 mi NW 11.5 mph - N/A   Clear
9:55 AM 16.2 °F 3.2 °F -8.3 °F 33% 30.33 in 10.0 mi NNW 11.5 mph 17.3 mph N/A   Clear
10:15 AM 15.4 °F 3.0 °F -10.1 °F 32% 30.33 in 10.0 mi NNW 10.4 mph - N/A   Clear
10:35 AM 16.7 °F 6.2 °F -9.6 °F 31% 30.35 in 10.0 mi NNW 8.1 mph - N/A   Clear
10:55 AM 18.3 °F 11.5 °F -9.2 °F 29% 30.35 in 10.0 mi NNW 4.6 mph - N/A   Clear
11:15 AM 19.2 °F 10.2 °F -8.7 °F 29% 30.34 in 10.0 mi North 6.9 mph - N/A   Clear
11:35 AM 20.1 °F 9.5 °F -8.5 °F 28% 30.34 in 10.0 mi NNW 9.2 mph - N/A   Clear
11:55 AM 21.7 °F 11.5 °F -6.2 °F 29% 30.33 in 10.0 mi North 9.2 mph - N/A   Clear
12:15 PM 23.0 °F 14.7 °F -7.4 °F 26% 30.32 in 10.0 mi NNW 6.9 mph - N/A   Clear
12:35 PM 23.7 °F 13.3 °F -4.4 °F 29% 30.31 in 10.0 mi North 10.4 mph - N/A   Clear
12:55 PM 24.6 °F 16.7 °F -5.8 °F 26% 30.30 in 10.0 mi North 6.9 mph - N/A   Clear
1:15 PM 26.1 °F 21.9 °F -5.8 °F 25% 30.29 in 10.0 mi North 3.5 mph - N/A   Clear
1:35 PM 26.6 °F 18.2 °F -4.7 °F 26% 30.29 in 10.0 mi NNW 8.1 mph - N/A   Clear
1:55 PM 27.3 °F 19.9 °F -2.4 °F 28% 30.28 in 10.0 mi NNE 6.9 mph - N/A   Clear
2:15 PM 28.2 °F 21.0 °F -2.9 °F 26% 30.27 in 10.0 mi NW 6.9 mph - N/A   Clear
2:35 PM 28.8 °F 22.6 °F -4.5 °F 24% 30.27 in 10.0 mi NW 5.8 mph - N/A   Clear
2:50 PM 28.2 °F 22.0 °F -5.1 °F 24% 30.26 in 10.0 mi North 5.8 mph - N/A   Clear
3:15 PM 28.8 °F - -4.7 °F 23% 30.27 in 10.0 mi Calm Calm - N/A   Clear
3:35 PM 29.3 °F 23.2 °F -4.9 °F 23% 30.27 in 10.0 mi NNW 5.8 mph - N/A   Clear
3:55 PM 29.7 °F - -5.8 °F 21% 30.28 in 10.0 mi Calm Calm - N/A   Clear
4:15 PM 29.3 °F - -4.5 °F 23% 30.28 in 10.0 mi Calm Calm - N/A   Clear
4:35 PM 28.6 °F - -5.3 °F 23% 30.29 in 10.0 mi Calm Calm - N/A   Clear
4:55 PM 28.9 °F - -5.1 °F 23% 30.29 in 10.0 mi Calm Calm - N/A   Clear
5:15 PM 27.3 °F - -4.9 °F 25% 30.28 in 10.0 mi Calm Calm - N/A   Clear
5:35 PM 24.8 °F - -2.4 °F 31% 30.29 in 10.0 mi Calm Calm - N/A   Clear
5:55 PM 22.5 °F - -0.2 °F 37% 30.29 in 10.0 mi Calm Calm - N/A   Clear
6:15 PM 19.8 °F - 0.9 °F 44% 30.30 in 10.0 mi Calm Calm - N/A   Clear
6:35 PM 18.9 °F - 0.5 °F 45% 30.30 in 10.0 mi Calm Calm - N/A   Clear
6:55 PM 17.4 °F - 0.7 °F 48% 30.31 in 10.0 mi Calm Calm - N/A   Clear
7:15 PM 16.9 °F - 0.7 °F 49% 30.31 in 10.0 mi Calm Calm - N/A   Clear
7:35 PM 14.9 °F - 2.8 °F 59% 30.32 in 10.0 mi Calm Calm - N/A   Clear
7:55 PM 16.5 °F - 3.2 °F 56% 30.32 in 10.0 mi Calm Calm - N/A   Clear
8:15 PM 13.8 °F - 3.9 °F 65% 30.32 in 10.0 mi Calm Calm - N/A   Clear
8:35 PM 12.9 °F - 4.6 °F 70% 30.31 in 10.0 mi Calm Calm - N/A   Clear
8:55 PM 12.4 °F - 2.1 °F 64% 30.32 in 10.0 mi Calm Calm - N/A   Clear
9:15 PM 10.6 °F - 2.7 °F 70% 30.32 in 10.0 mi Calm Calm - N/A   Clear
9:35 PM 8.8 °F - 2.3 °F 75% 30.33 in 10.0 mi Calm Calm - N/A   Clear
9:55 PM 7.9 °F - 2.1 °F 77% 30.33 in 10.0 mi Calm Calm - N/A   Clear
10:15 PM 7.7 °F - 0.7 °F 73% 30.33 in 10.0 mi Calm Calm - N/A   Clear
10:35 PM 6.6 °F - 0.5 °F 76% 30.34 in 10.0 mi Calm Calm - N/A   Clear
10:55 PM 6.3 °F - 1.6 °F 81% 30.35 in 10.0 mi Calm Calm - N/A   Clear
11:15 PM 5.0 °F - 0.1 °F 80% 30.35 in 10.0 mi Calm Calm - N/A   Clear
11:35 PM 4.5 °F - -0.4 °F 80% 30.35 in 10.0 mi Calm Calm - N/A   Clear
11:55 PM 3.7 °F - -0.0 °F 84% 30.35 in 10.0 mi Calm Calm - N/A   Clear